Back to catalog

STARLINK-34361

AliveCommunicationsVLEO
NORAD 64450·PAYLOAD·🇺🇸 United States

Launched Jun 18, 2025 from Cape Canaveral Space Force Station

Loading…

Next Passes (next 24 hours)

TLE

FreshSource: CelesTrak SupGP

Epoch: Sep 14, 2026, 14:11 UTC

1 64450C 25130N   26257.59145833  .00024326  00000+0  71895-3 0  2576
2 64450  53.1582 287.2321 0001168  82.9882 124.8887 15.34369114    19

Track STARLINK-34361 in real time with AllMySat

Download on the App Store